[[{"header":{"parameterUnit":"m.s-1","parameterCategory":1,"la1":30.2991,"la2":30.254,"lo1":-89.0895,"lo2":-89.0444,"dy":0.0017,"dx":0.0017,"nx":28,"ny":28,"refTime":"2025-07-04T09:00:00:Z","depth":0,"parameterNumber":2,"parameterNumberName":"U-component_of_WINDS"},"data":[0,0,0,0,0,0,0,0,0,0,0,0,0,0,0,0,0,0,0,0,0,0,0,0,0,0,0,0,0,0,0,0,0,0,0,0,0,0,0,0,0,0,0,0,0,0,0,0,0,0,0,0,0,0,0,0,0,0,0.3062,0.3061,0,0.2956,0.2955,0.2953,0.2908,0.2908,0.2908,0.2909,0.2793,0.2789,0.2786,0,0,0,0,0,0,0,0,0,0,0,0,0,0.322,0.3218,0.3062,0.3061,0.306,0.2956,0.2954,0.2953,0.2908,0.2908,0.2908,0.2909,0.2794,0.279,0.2786,0,0,0,0,0,0,0,0,0,0,0,0,0,0.3137,0.3217,0.3062,0.3025,0.302,0.2956,0.2954,0.2953,0.2908,0.2908,0.2908,0.2909,0.2795,0.279,0.2785,0.2749,0,0,0.277,0.2768,0,0,0,0,0,0,0,0,0.3141,0.3131,0.3032,0.3027,0.3022,0.2946,0.2968,0.2884,0.2908,0.295,0.2909,0.2909,0.2843,0.2834,0.2813,0.2743,0.2738,0.277,0.2767,0.2765,0.2763,0,0,0,0,0,0,0,0.3147,0.3135,0.302,0.303,0.3024,0.3011,0.3,0.2952,0.2896,0.2947,0.2943,0.2932,0.284,0.2818,0.281,0.2736,0.277,0.2766,0.2762,0.2761,0.2631,0.263,0,0,0,0,0,0,0.316,0.314,0.3023,0.3017,0.3084,0.3008,0.2995,0.297,0.2896,0.2886,0.2931,0.293,0.2826,0.2816,0.2806,0.2758,0.2765,0.276,0.2757,0.2631,0.2631,0.263,0,0,0,0,0,0,0.3164,0.315,0.3028,0.3077,0.3061,0.3005,0.2977,0.2967,0.2945,0.2885,0.2874,0.2919,0.2826,0.2813,0.2764,0.2753,0.2758,0.2753,0.2632,0.2631,0.263,0.2662,0,0,0,0,0,0,0.3168,0.3152,0.3139,0.3078,0.3059,0.2989,0.2976,0.2965,0.2938,0.2935,0.2871,0.286,0.2825,0.2771,0.2759,0.2747,0.275,0.2632,0.2632,0.2631,0.2662,0.2663,0.2663,0,0,0,0,0,0.3174,0.315,0.3138,0.3124,0.3041,0.2989,0.2978,0.294,0.2937,0.2922,0.2884,0.2862,0.2757,0.2767,0.2752,0.2738,0.2633,0.2632,0.2631,0.2661,0.2663,0.2663,0,0,0,0,0,0,0.3209,0.3142,0.3127,0.3083,0.3043,0.2981,0.2962,0.2942,0.2899,0.2898,0.2851,0.2836,0.2791,0.276,0.2772,0.2699,0.2693,0.2689,0.2721,0.2722,0.2723,0.2731,0.2745,0,0,0,0,0,0.3212,0.3177,0.3119,0.3086,0.3066,0.3018,0.2993,0.2968,0.2923,0.2905,0.2862,0.2817,0.2774,0.2746,0.2703,0.2657,0.2642,0.2641,0.2641,0.2642,0.2639,0.2612,0.2611,0.2627,0.2627,0.2627,0,0,0.3216,0.3176,0.3156,0.3092,0.3057,0.302,0.3003,0.2965,0.2936,0.2898,0.285,0.2817,0.2763,0.2717,0.2693,0.2689,0.2632,0.2641,0.2642,0.2638,0.2611,0.261,0.2608,0.2626,0.2626,0.2626,0,0,0.3207,0.3173,0.3141,0.3108,0.3056,0.3024,0.3017,0.2959,0.2937,0.2888,0.2859,0.2823,0.2749,0.2713,0.2684,0.2662,0.264,0.2649,0.2652,0.2627,0.2626,0.2624,0.2616,0.2613,0.2646,0.2646,0.2646,0,0.3218,0.3164,0.3127,0.3091,0.3063,0.3029,0.2996,0.2964,0.29,0.2881,0.2877,0.2785,0.2746,0.269,0.2685,0.2663,0.2652,0.2655,0.2629,0.2628,0.2626,0.2617,0.2614,0.2647,0.2647,0.2647,0.2647,0,0.3181,0.3143,0.3124,0.3066,0.3036,0.3001,0.2958,0.2931,0.2909,0.2877,0.2827,0.278,0.2727,0.2712,0.2688,0.2652,0.2651,0.2639,0.2632,0.2626,0.2617,0.2614,0.2649,0.2649,0.2648,0.2648,0,0,0.3188,0.3112,0.3106,0.3079,0.302,0.299,0.2953,0.2904,0.2882,0.2839,0.2806,0.2745,0.2734,0.2702,0.2674,0.2652,0.2637,0.2642,0.264,0.2643,0.2593,0.2603,0.2599,0.2623,0.2622,0.2621,0.2598,0,0.317,0.3106,0.3072,0.3021,0.2986,0.2954,0.2921,0.2881,0.285,0.2814,0.2779,0.2737,0.2726,0.2706,0.2683,0.2644,0.2626,0.2645,0.259,0.2588,0.2604,0.2595,0.2604,0.2584,0.2594,0.2593,0.2593,0,0.314,0.3101,0.3047,0.2994,0.2977,0.295,0.2902,0.2868,0.2821,0.28,0.2765,0.2738,0.2697,0.2694,0.2635,0.2649,0.2624,0.2601,0.26,0.2592,0.259,0.2587,0.2577,0.2574,0.2587,0.2588,0.2588,0,0.3151,0.3084,0.3044,0.3022,0.2958,0.294,0.2912,0.2865,0.2838,0.2795,0.2777,0.2729,0.2702,0.2665,0.2625,0.2627,0.257,0.2564,0.255,0.2551,0.2539,0.254,0.2525,0.2524,0.2524,0.2524,0.2524,0,0.3134,0.3102,0.3048,0.3023,0.2986,0.2947,0.2911,0.288,0.2839,0.2806,0.2775,0.2744,0.2694,0.2656,0.2624,0.258,0.2568,0.2549,0.2541,0.2552,0.2554,0.2534,0.2534,0.2523,0.2524,0.2524,0.2524,0,0.314,0.3102,0.3056,0.3,0.2985,0.2961,0.2912,0.2885,0.2854,0.2812,0.28,0.275,0.2704,0.2661,0.2599,0.2578,0.2533,0.2523,0.255,0.2545,0.2534,0.2536,0.2505,0.2498,0.2503,0.2503,0.2503,0,0.3131,0.3106,0.3049,0.3026,0.3,0.2962,0.2935,0.2895,0.2867,0.2813,0.2792,0.2745,0.2705,0.2633,0.2589,0.2542,0.2529,0.2522,0.2522,0.2534,0.2529,0.2531,0.2528,0.2522,0.2523,0.2523,0.2523,0,0.312,0.3103,0.3066,0.3022,0.2991,0.2954,0.2916,0.2899,0.2851,0.2821,0.2776,0.2745,0.2683,0.2636,0.2584,0.2552,0.2529,0.2524,0.2518,0.2528,0.2545,0.2535,0.2552,0.2524,0.2524,0.2524,0.2524,0.2524,0.3117,0.3094,0.3051,0.301,0.2978,0.2944,0.2916,0.2882,0.2844,0.2793,0.2771,0.2725,0.2677,0.2605,0.2575,0.2536,0.2531,0.2523,0.252,0.2519,0.2521,0.2552,0.2526,0.2526,0.2526,0.2526,0.2526,0,0.3104,0.3075,0.3039,0.2988,0.2956,0.294,0.2897,0.2871,0.2831,0.2791,0.2753,0.27,0.2654,0.2608,0.2559,0.2537,0.2525,0.2526,0.2526,0.2519,0.2529,0.2539,0.2536,0.2536,0.2536,0.2536,0.2536,0.2536,0.3094,0.3054,0.3032,0.2975,0.2945,0.2901,0.2878,0.2846,0.2813,0.2757,0.272,0.2691,0.2647,0.2595,0.2552,0.2539,0.2522,0.2526,0.251,0.2519,0.2519,0.2518,0.2527,0.2523,0.2523,0.2504,0.2504,0.2503]},{"header":{"parameterUnit":"m.s-1","parameterCategory":1,"la1":30.2991,"la2":30.254,"lo1":-89.0895,"lo2":-89.0444,"dy":0.0017,"dx":0.0017,"nx":28,"ny":28,"refTime":"2025-07-04T09:00:00:Z","depth":0,"parameterNumber":3,"parameterNumberName":"V-component_of_WINDS"},"data":[0,0,0,0,0,0,0,0,0,0,0,0,0,0,0,0,0,0,0,0,0,0,0,0,0,0,0,0,0,0,0,0,0,0,0,0,0,0,0,0,0,0,0,0,0,0,0,0,0,0,0,0,0,0,0,0,0,0,-2.6401,-2.6401,0,-2.6451,-2.6452,-2.6452,-2.6415,-2.6414,-2.6412,-2.6411,-2.6458,-2.6461,-2.6464,0,0,0,0,0,0,0,0,0,0,0,0,0,-2.627,-2.6273,-2.6401,-2.6402,-2.6402,-2.6451,-2.6452,-2.6452,-2.6416,-2.6414,-2.6412,-2.641,-2.6458,-2.6461,-2.6464,0,0,0,0,0,0,0,0,0,0,0,0,0,-2.6324,-2.6274,-2.6401,-2.639,-2.6389,-2.6451,-2.6452,-2.6452,-2.6416,-2.6414,-2.6411,-2.6409,-2.6456,-2.646,-2.6465,-2.6538,0,0,-2.6477,-2.6479,0,0,0,0,0,0,0,0,-2.6321,-2.6329,-2.6391,-2.6391,-2.639,-2.6425,-2.6423,-2.6481,-2.6417,-2.6406,-2.6411,-2.6408,-2.6449,-2.6453,-2.6468,-2.654,-2.6542,-2.6478,-2.648,-2.6482,-2.6483,0,0,0,0,0,0,0,-2.6318,-2.6327,-2.6421,-2.6392,-2.6392,-2.6381,-2.6386,-2.6434,-2.644,-2.6407,-2.6404,-2.6411,-2.6448,-2.6464,-2.6469,-2.6543,-2.6477,-2.6481,-2.6484,-2.6485,-2.6678,-2.6681,0,0,0,0,0,0,-2.6315,-2.6324,-2.6419,-2.6422,-2.6349,-2.6386,-2.6391,-2.6416,-2.644,-2.6441,-2.6413,-2.6409,-2.6458,-2.6464,-2.647,-2.6558,-2.6482,-2.6486,-2.6488,-2.6676,-2.6679,-2.6682,0,0,0,0,0,0,-2.6313,-2.6324,-2.6417,-2.6372,-2.6383,-2.6391,-2.6419,-2.6418,-2.6434,-2.6444,-2.6445,-2.6428,-2.6457,-2.6465,-2.6522,-2.6559,-2.6488,-2.6491,-2.6673,-2.6677,-2.668,-2.6734,0,0,0,0,0,0,-2.6309,-2.6324,-2.6352,-2.6373,-2.6386,-2.6469,-2.6421,-2.6421,-2.6442,-2.6437,-2.6459,-2.646,-2.6455,-2.6516,-2.6526,-2.6564,-2.6495,-2.6669,-2.6674,-2.6679,-2.6729,-2.674,-2.6748,0,0,0,0,0,-2.6305,-2.6365,-2.6354,-2.6366,-2.6422,-2.6471,-2.6478,-2.6473,-2.6445,-2.6473,-2.648,-2.6459,-2.6554,-2.6522,-2.6533,-2.6573,-2.6667,-2.6673,-2.6679,-2.6725,-2.6737,-2.6748,0,0,0,0,0,0,-2.6346,-2.6367,-2.6355,-2.6424,-2.6446,-2.6465,-2.65,-2.6486,-2.6515,-2.651,-2.65,-2.6506,-2.6566,-2.6575,-2.6539,-2.6645,-2.6606,-2.6614,-2.6637,-2.6649,-2.6659,-2.6655,-2.6498,0,0,0,0,0,-2.6364,-2.6403,-2.6418,-2.6477,-2.6489,-2.6493,-2.6514,-2.6508,-2.653,-2.6539,-2.6549,-2.657,-2.6605,-2.6627,-2.666,-2.6731,-2.6734,-2.6763,-2.6773,-2.6781,-2.6788,-2.6826,-2.6839,-2.6701,-2.6701,-2.6701,0,0,-2.6399,-2.6416,-2.644,-2.6486,-2.6502,-2.6542,-2.6501,-2.6544,-2.6573,-2.6545,-2.66,-2.6609,-2.6631,-2.6696,-2.6725,-2.6705,-2.6827,-2.6788,-2.6794,-2.6797,-2.6833,-2.6846,-2.6858,-2.6705,-2.6705,-2.6704,0,0,-2.6485,-2.6502,-2.6553,-2.657,-2.6596,-2.6599,-2.6611,-2.6632,-2.6637,-2.6692,-2.6672,-2.6706,-2.6765,-2.6782,-2.6799,-2.6892,-2.6874,-2.6903,-2.6953,-2.699,-2.7001,-2.701,-2.7043,-2.7055,-2.691,-2.691,-2.691,0,-2.6526,-2.6586,-2.658,-2.6626,-2.6646,-2.6624,-2.6675,-2.6692,-2.6727,-2.6741,-2.6719,-2.6794,-2.6807,-2.6875,-2.6898,-2.6913,-2.6926,-2.69,-2.7,-2.7009,-2.7018,-2.7049,-2.7062,-2.6913,-2.6913,-2.6913,-2.6912,0,-2.6634,-2.6676,-2.6714,-2.675,-2.6775,-2.6823,-2.6824,-2.6849,-2.6842,-2.6846,-2.6903,-2.6919,-2.6954,-2.697,-2.6962,-2.7037,-2.7024,-2.7001,-2.6961,-2.7035,-2.7064,-2.7076,-2.6918,-2.6917,-2.6916,-2.6915,0,0,-2.6746,-2.678,-2.6793,-2.6809,-2.6837,-2.6868,-2.6915,-2.6951,-2.6973,-2.6998,-2.7036,-2.7088,-2.7067,-2.7086,-2.708,-2.7113,-2.7185,-2.7086,-2.7086,-2.7103,-2.7268,-2.7285,-2.7299,-2.7174,-2.7176,-2.7178,-2.7266,0,-2.6833,-2.6916,-2.6913,-2.699,-2.7028,-2.7008,-2.7049,-2.707,-2.7075,-2.7108,-2.7113,-2.715,-2.712,-2.7131,-2.7163,-2.717,-2.7218,-2.7163,-2.7208,-2.721,-2.7203,-2.7314,-2.7332,-2.7414,-2.7278,-2.728,-2.7281,0,-2.6945,-2.6975,-2.7056,-2.7079,-2.7095,-2.7131,-2.7164,-2.7196,-2.7219,-2.722,-2.7242,-2.7231,-2.7278,-2.7237,-2.7301,-2.7264,-2.7282,-2.7288,-2.7291,-2.7295,-2.7249,-2.732,-2.7441,-2.7453,-2.7299,-2.7297,-2.7296,0,-2.7018,-2.7079,-2.7135,-2.715,-2.7177,-2.7203,-2.7216,-2.7237,-2.7258,-2.7287,-2.7301,-2.7334,-2.7351,-2.7377,-2.7374,-2.7345,-2.7439,-2.7398,-2.7441,-2.7441,-2.746,-2.7459,-2.7585,-2.7474,-2.7473,-2.7473,-2.7473,0,-2.7114,-2.7165,-2.7169,-2.7203,-2.7259,-2.7255,-2.731,-2.7319,-2.7338,-2.7374,-2.7358,-2.7391,-2.7387,-2.742,-2.7418,-2.7471,-2.7479,-2.7481,-2.748,-2.7482,-2.7482,-2.7494,-2.7487,-2.7476,-2.7476,-2.7475,-2.7474,0,-2.7205,-2.721,-2.727,-2.7292,-2.7298,-2.7338,-2.7356,-2.7389,-2.7394,-2.7439,-2.7449,-2.7456,-2.7494,-2.7495,-2.7539,-2.7538,-2.7602,-2.7594,-2.7595,-2.7593,-2.7635,-2.7631,-2.7772,-2.7791,-2.7668,-2.7669,-2.767,0,-2.7266,-2.7304,-2.7331,-2.7354,-2.7369,-2.7406,-2.7429,-2.7427,-2.7451,-2.748,-2.7509,-2.7546,-2.7576,-2.7638,-2.7646,-2.768,-2.7672,-2.772,-2.7677,-2.7678,-2.7672,-2.767,-2.7674,-2.7728,-2.7729,-2.773,-2.7731,0,-2.7373,-2.7374,-2.7408,-2.7444,-2.7472,-2.7499,-2.7524,-2.7544,-2.7544,-2.7572,-2.7612,-2.7635,-2.768,-2.7717,-2.775,-2.7761,-2.7746,-2.7745,-2.7756,-2.7759,-2.7757,-2.7758,-2.7617,-2.7741,-2.774,-2.774,-2.7739,-2.7739,-2.745,-2.7484,-2.7508,-2.7547,-2.7566,-2.759,-2.7622,-2.7631,-2.7665,-2.7703,-2.7699,-2.7743,-2.7765,-2.7807,-2.7822,-2.7856,-2.7839,-2.7856,-2.786,-2.7864,-2.7868,-2.7753,-2.7861,-2.7861,-2.7861,-2.7861,-2.786,0,-2.7557,-2.7572,-2.7607,-2.7644,-2.7674,-2.766,-2.7687,-2.7713,-2.7752,-2.7775,-2.7805,-2.7851,-2.7887,-2.7899,-2.7933,-2.7958,-2.7952,-2.7967,-2.7965,-2.7968,-2.7881,-2.7868,-2.7971,-2.7971,-2.7971,-2.7971,-2.7971,-2.7971,-2.7616,-2.7672,-2.7675,-2.774,-2.7755,-2.7799,-2.7816,-2.7838,-2.7856,-2.7908,-2.7939,-2.7947,-2.7965,-2.8001,-2.8033,-2.8035,-2.8048,-2.8066,-2.8066,-2.7985,-2.7974,-2.7963,-2.795,-2.8069,-2.807,-2.8149,-2.815,-2.8151]}]]